Home > Weather > Vevey > Past weeks

Flag for Switzerland Past Weather in Vevey, Vaud, Switzerland — Yesterday and Last 2 Weeks

Now
68 °F

Mild.


Feels Like: 68 °F
Forecast: 56 / 74 °F
Wind: 6 mph from Northwest

Location: Aigle

Current Time: Jul 2, 2016 at 4:10:00 AM

Latest Report: Jul 2, 2016 at 3:00 AM


Visibility: N/A

Pressure: 30.01 "Hg

Humidity: 77%

Dew Point: 60 °F

Location of VeveyLocation

Past Weather in Vevey — Graph

°F

Vevey Temperature Yesterday

Maximum temperature yesterday: 80 °F (at 7:00 PM)
Minimum temperature yesterday: 59 °F (at 6:00 AM)
Average temperature yesterday: 70 °F

High & Low Weather Summary for the Past Weeks

 TemperatureHumidityPressure
High87 °F (Jun 24, 5:00 PM)96% (Jun 19, 6:00 AM)30.27 "Hg (Jun 19, 6:00 AM)
Low50 °F (Jun 20, 6:00 AM)34% (Jun 24, 5:00 PM)29.80 "Hg (Jun 17, 2:00 AM)
Average66 °F75%30.07 "Hg
* Reported Jun 17 2:00 AM — Jul 2 2:00 AM, Vevey, Weather by CustomWeather, © 2016

Note: Actual official high and low records may vary slightly from our data, if they occured in-between our weather recording intervals... More about our weather records

Advertising

Vevey Weather History for the Previous 24 Hours

Scroll right to see more
 ConditionsComfort  
Time TempWeatherWind HumidityBarometerVisibility
2:00 AM
Sat, Jul 2
65 °FMild.3 mph80%30.00 "HgN/A
1:00 AM64 °FMild.1 mph88%29.99 "HgN/A
12:00 AM67 °FMild.7 mph78%29.99 "HgN/A
11:00 PM
Fri, Jul 1
71 °FMild.5 mph68%29.98 "HgN/A
10:00 PM70 °FMild.7 mph76%29.98 "HgN/A
9:00 PM72 °FMild.3 mph71%29.97 "HgN/A
8:00 PM79 °FPassing clouds.No wind61%29.94 "Hg25 mi
7:00 PM80 °FWarm.2 mph58%29.95 "HgN/A
6:00 PM79 °FWarm.2 mph57%29.96 "HgN/A
5:00 PM79 °FPassing clouds.2 mph60%29.96 "Hg25 mi
4:00 PM77 °FWarm.5 mph61%29.98 "HgN/A
3:00 PM77 °FMild.8 mph62%29.99 "HgN/A
2:00 PM77 °FPassing clouds.8 mph61%30.00 "Hg28 mi
1:00 PM77 °FMild.7 mph65%30.01 "HgN/A
12:00 PM73 °FMild.7 mph62%30.04 "HgN/A
11:00 AM72 °FPassing clouds.6 mph64%30.05 "Hg25 mi
10:00 AM71 °FMild.9 mph65%30.05 "HgN/A
9:00 AM68 °FMild.5 mph73%30.06 "HgN/A
8:00 AM66 °FMild.1 mph81%30.06 "HgN/A
7:00 AM60 °FCool.5 mph93%30.08 "HgN/A
6:00 AM59 °FCool.1 mph93%30.08 "HgN/A
5:00 AM62 °FPassing clouds.3 mph87%30.06 "Hg11 mi
4:00 AM61 °FCool.5 mph92%30.06 "HgN/A
Weather by CustomWeather, © 2016

See weather overviewHow to use our weather pages